STARLINK-5860, 57052

Orbit data source: Space-Track

STARLINK-5860, 57052 is a payload satellite owned by SpaceX/Seattle (US) in LEO that was launched on Thu, 22 Jun 2023 UTC via an FALCON 9 launch vehicle from the Air Force Western Test Range (AFWTR). Payload-class satellites include a variety of spacecraft equipped with specific instruments for various scientific and technological missions. These include communications satellites like Starlink; space stations such as the ISS; scientific satellites like the Hubble; Earth observation satellites from companies like Planet Labs, Umbra, and HawkEye 360; GPS; miniature CubeSats for education and research; and military/defense satellites.

Loading next visibility...
Identifier
57052, 2023-088E
Orbit
LEO
Country
Flag of USUS
Related business
Manufacturer
SpaceX/Seattle
Mission
Operational Commercial Communications
Bus & Motor
STARLINK, Unknown motor
Mass
305 kg wet, ~290 kg dry
Launch date (UTC)
Icon of a cake. It is the launch day of the satellite!2023-06-22 (3 years ago)
Launch vehicle
FALCON 9
Launch site
Air Force Western Test Range (AFWTR)
Object type
Payload
Rocket body
Debris
Shape & HBR
Box + 1 Pan, 10.1 m
Radar Cross Section
11.087 m², Large (>1 m²)

Expand to show TLE details & history
Last TLE update: 3 days ago

TLE from 3 days ago
0 STARLINK-5860
1 57052U 23088E   26170.67807045 -.00000269  00000-0 -26474-6 0  9991
2 57052  43.0038 254.4004 0001436 271.7050  88.3637 15.27576876165937
Epoch: 2026-06-19T16:16Z
TLE epoch observation values (Epoch: 2026-06-19T16:16:25.286Z)
Latitude
-0.00005°
Longitude
102.39139°
Altitude
482.806 km
Speed
7.626 km/s
True Right ascension
16h 57m 36s
True Declination
0° 00' 00"
Sunlit
Object was in full shadow at epoch
Visualization orbit readout
Latitude
Unknown
Longitude
Unknown
Altitude
Unknown
Speed
Unknown
Apparent Right ascension
Unknown
Apparent Declination
Unknown
Sunlit
N/A
Visualization observer readout
Local Sidereal Time
00:34:40
Azimuth
Unknown
Elevation
Unknown
Doppler factor
Unknown
Orbital elements
Apogee altitude
485.989 km
Perigee altitude
484.017 km
Semi-major axis
6,863.14 km
Eccentricity
0.00014
Inclination
43.0038°
RAAN
254.4004°
Arg. of periapsis
271.705°
True anomaly
88.38015°
Mean anomaly
88.3637°
Eccentric anomaly
88.37192°
Mean motion
3.81732 °/min
Orbital period
94.31 mins
BSTAR
-2.6474e-7
Loading maneuver chart data...
Computing Atmospheric mass density...
Loading historical data...
Loading historical data...
Loading historical data...
Loading historical data...
Loading historical data...
Loading historical data...
Loading historical data...

Documentation

Showing up to 5 results
|